QPF
0.05 0.04 0.02 0.02 0.02 0.02 0.02 0.01 0.01 0.02 0.03 0.02 0.02 0.03 0.02 0.01 0.02 0.03 0.05 0.05 0.05 0.07 0.10 0.10 0.09 0.08 0.08 0.07 0.05 0.05 0.07 0.10 0.09 0.06 0.04 0.03 0.04 0.03 0.02 0.01 0.01 0.01 0.01
0.07 0.06 0.04 0.04 0.03 0.02 0.02 0.01 0.01 0.01 0.02 0.02 0.02 0.02 0.03 0.03 0.02 0.02 0.04 0.06 0.05 0.05 0.07 0.08 0.09 0.10 0.08 0.08 0.07 0.07 0.06 0.06 0.07 0.07 0.05 0.04 0.04 0.03 0.03 0.03 0.02 0.01 0.01
0.06 0.06 0.06 0.05 0.03 0.02 0.02 0.02 0.01 0.02 0.02 0.02 0.02 0.03 0.04 0.04 0.03 0.03 0.03 0.05 0.06 0.05 0.05 0.06 0.06 0.07 0.08 0.09 0.09 0.10 0.09 0.06 0.05 0.05 0.05 0.05 0.04 0.03 0.04 0.04 0.03 0.01 0.01
0.04 0.04 0.05 0.04 0.02 0.02 0.03 0.03 0.02 0.01 0.02 0.03 0.03 0.03 0.03 0.03 0.03 0.03 0.03 0.04 0.08 0.07 0.07 0.07 0.05 0.05 0.06 0.09 0.09 0.11 0.11 0.08 0.05 0.04 0.03 0.03 0.04 0.05 0.05 0.04 0.02 0.02 0.01
0.05 0.06 0.05 0.04 0.02 0.02 0.03 0.02 0.02 0.01 0.03 0.03 0.02 0.02 0.02 0.02 0.03 0.03 0.03 0.04 0.06 0.07 0.08 0.06 0.04 0.05 0.06 0.09 0.09 0.12 0.13 0.09 0.07 0.06 0.05 0.04 0.04 0.04 0.04 0.04 0.05 0.04 0.02
0.06 0.05 0.04 0.03 0.02 0.03 0.04 0.03 0.03 0.02 0.02 0.02 0.01 0.01 0.01 0.01 0.01 0.02 0.02 0.03 0.03 0.04 0.04 0.06 0.07 0.05 0.05 0.08 0.07 0.07 0.10 0.08 0.07 0.07 0.06 0.06 0.05 0.05 0.03 0.03 0.03 0.03 0.03
0.06 0.05 0.04 0.03 0.02 0.03 0.03 0.03 0.02 0.01 0.01 0.01 0.02 0.02 0.02 0.01 0.00 0.01 0.02 0.02 0.02 0.03 0.04 0.04 0.05 0.05 0.07 0.04 0.03 0.04 0.05 0.06 0.06 0.07 0.06 0.06 0.06 0.05 0.04 0.03 0.02 0.02 0.02
0.04 0.04 0.04 0.03 0.03 0.03 0.03 0.02 0.02 0.01 0.01 0.01 0.02 0.02 0.03 0.03 0.01 0.01 0.01 0.01 0.02 0.03 0.04 0.04 0.05 0.05 0.06 0.08 0.04 0.03 0.03 0.04 0.05 0.07 0.07 0.05 0.04 0.03 0.03 0.03 0.03 0.03 0.02
0.02 0.02 0.02 0.02 0.02 0.02 0.02 0.01 0.01 0.01 0.01 0.00 0.01 0.01 0.01 0.02 0.02 0.01 0.01 0.01 0.01 0.02 0.03 0.04 0.03 0.03 0.04 0.07 0.06 0.04 0.03 0.03 0.05 0.07 0.08 0.06 0.04 0.03 0.03 0.03 0.03 0.03 0.03
0.03 0.02 0.01 0.02 0.02 0.02 0.01 0.00 0.00 0.00 0.00 0.00 0.00 0.00 0.00 0.01 0.01 0.01 0.01 0.00 0.00 0.01 0.01 0.01 0.01 0.02 0.02 0.04 0.05 0.03 0.02 0.02 0.02 0.04 0.06 0.06 0.05 0.04 0.03 0.04 0.05 0.05 0.04
0.02 0.01 0.01 0.01 0.01 0.01 0.01 0.01 0.00 0.00 0.00 0.00 0.00 0.00 0.00 0.00 0.00 0.00 0.01 0.00 0.00 0.00 0.00 0.00 0.00 0.01 0.01 0.02 0.04 0.03 0.01 0.01 0.01 0.02 0.03 0.04 0.05 0.05 0.04 0.04 0.05 0.06 0.08
0.02 0.01 0.01 0.01 0.01 0.01 0.01 0.01 0.00 0.00 0.00 0.00 0.00 0.00 0.00 0.00 0.00 0.00 0.01 0.01 0.01 0.00 0.00 0.00 0.00 0.00 0.01 0.01 0.01 0.00 0.00 0.00 0.00 0.01 0.01 0.01 0.02 0.03 0.03 0.03 0.04 0.06 0.08
0.02 0.02 0.01 0.01 0.01 0.01 0.00 0.00 0.00 0.00 0.00 0.00 0.00 0.00 0.00 0.00 0.00 0.00 0.01 0.00 0.00 0.00 0.00 0.00 0.00 0.00 0.00 0.00 0.01 0.00 0.00 0.00 0.00 0.00 0.01 0.00 0.00 0.01 0.01 0.01 0.02 0.03 0.04
0.02 0.01 0.01 0.01 0.01 0.00 0.00 0.00 0.00 0.00 0.00 0.00 0.00 0.00 0.00 0.00 0.00 0.00 0.00 0.00 0.00 0.00 0.00 0.00 0.00 0.00 0.00 0.00 0.00 0.00 0.00 0.00 0.00 0.00 0.00 0.00 0.00 0.00 0.00 0.00 0.00 0.00 0.01
0.02 0.01 0.01 0.01 0.01 0.01 0.01 0.01 0.01 0.00 0.00 0.00 0.00 0.00 0.00 0.00 0.00 0.00 0.00 0.00 0.00 0.00 0.00 0.00 0.00 0.00 0.00 0.00 0.00 0.00 0.00 0.00 0.00 0.00 0.00 0.00 0.00 0.00 0.00 0.00 0.00 0.00 0.00
0.03 0.02 0.01 0.01 0.02 0.02 0.01 0.01 0.01 0.01 0.00 0.01 0.01 0.01 0.00 0.00 0.00 0.00 0.00 0.00 0.00 0.00 0.00 0.00 0.00 0.00 0.00 0.00 0.00 0.00 0.00 0.00 0.00 0.00 0.00 0.00 0.00 0.00 0.00 0.00 0.00 0.00 0.00
0.04 0.02 0.02 0.02 0.02 0.02 0.02 0.01 0.01 0.01 0.00 0.00 0.00 0.00 0.00 0.00 0.00 0.00 0.00 0.00 0.00 0.00 0.00 0.00 0.00 0.00 0.00 0.00 0.00 0.00 0.00 0.00 0.00 0.00 0.00 0.00 0.00 0.00 0.00 0.00 0.00 0.00 0.00
0.03 0.02 0.02 0.02 0.01 0.02 0.02 0.01 0.01 0.01 0.01 0.01 0.01 0.01 0.00 0.00 0.00 0.00 0.00 0.00 0.00 0.00 0.00 0.00 0.00 0.00 0.00 0.00 0.00 0.00 0.00 0.00 0.00 0.00 0.00 0.00 0.00 0.00 0.00 0.00 0.00 0.00 0.00
0.03 0.02 0.03 0.02 0.02 0.02 0.02 0.02 0.01 0.01 0.01 0.01 0.01 0.01 0.01 0.01 0.01 0.01 0.01 0.01 0.01 0.01 0.00 0.00 0.00 0.00 0.00 0.01 0.01 0.00 0.00 0.00 0.00 0.00 0.00 0.00 0.00 0.00 0.00 0.00 0.00 0.00 0.00
0.05 0.03 0.02 0.02 0.02 0.02 0.02 0.02 0.02 0.02 0.01 0.01 0.01 0.01 0.01 0.01 0.01 0.01 0.01 0.01 0.01 0.01 0.01 0.01 0.01 0.01 0.01 0.01 0.01 0.01 0.01 0.01 0.01 0.00 0.00 0.00 0.00 0.00 0.00 0.00 0.00 0.00 0.00
0.03 0.03 0.02 0.02 0.02 0.02 0.02 0.02 0.02 0.02 0.01 0.01 0.01 0.02 0.02 0.01 0.01 0.01 0.00 0.01 0.01 0.01 0.01 0.02 0.01 0.01 0.01 0.02 0.01 0.01 0.01 0.01 0.01 0.01 0.01 0.01 0.00 0.00 0.00 0.00 0.00 0.00 0.00
0.02 0.02 0.02 0.02 0.02 0.02 0.02 0.02 0.03 0.02 0.03 0.03 0.04 0.04 0.03 0.02 0.01 0.01 0.00 0.00 0.01 0.01 0.01 0.02 0.01 0.02 0.02 0.02 0.03 0.02 0.01 0.01 0.01 0.01 0.01 0.01 0.00 0.01 0.00 0.00 0.00 0.00 0.00
0.02 0.02 0.02 0.02 0.03 0.03 0.03 0.03 0.03 0.03 0.04 0.05 0.05 0.04 0.04 0.03 0.02 0.01 0.01 0.01 0.01 0.01 0.01 0.01 0.02 0.02 0.03 0.03 0.04 0.03 0.02 0.02 0.01 0.01 0.01 0.01 0.00 0.01 0.00 0.00 0.00 0.00 0.00
0.03 0.03 0.03 0.03 0.03 0.04 0.05 0.04 0.03 0.02 0.03 0.03 0.03 0.03 0.03 0.03 0.03 0.02 0.03 0.02 0.02 0.02 0.02 0.02 0.01 0.02 0.03 0.03 0.03 0.02 0.02 0.02 0.01 0.01 0.01 0.01 0.01 0.01 0.00 0.00 0.00 0.00 0.00
0.04 0.04 0.04 0.03 0.03 0.04 0.05 0.05 0.05 0.04 0.03 0.03 0.03 0.04 0.05 0.05 0.06 0.06 0.05 0.05 0.05 0.04 0.03 0.02 0.02 0.02 0.02 0.02 0.02 0.02 0.02 0.02 0.01 0.01 0.01 0.01 0.00 0.00 0.00 0.00 0.00 0.00 0.00
0.04 0.04 0.03 0.03 0.03 0.03 0.05 0.06 0.06 0.05 0.05 0.04 0.05 0.06 0.07 0.06 0.06 0.06 0.05 0.05 0.05 0.05 0.04 0.03 0.03 0.02 0.02 0.02 0.02 0.02 0.02 0.02 0.02 0.01 0.01 0.02 0.01 0.01 0.01 0.00 0.00 0.00 0.00
MSLP
1017.14 1017.31 1017.41 1017.45 1017.46 1017.49 1017.54 1017.61 1017.70 1017.79 1017.86 1017.92 1017.96 1018.02 1018.11 1018.26 1018.49 1018.81 1019.20 1019.62 1020.05 1020.44 1020.76 1021.00 1021.17 1021.28 1021.35 1021.42 1021.52 1021.64 1021.80 1021.99 1022.20 1022.41 1022.60 1022.78 1022.94 1023.09 1023.22 1023.34 1023.45 1023.55 1023.63
1017.23 1017.42 1017.51 1017.53 1017.52 1017.51 1017.53 1017.60 1017.70 1017.82 1017.95 1018.07 1018.19 1018.29 1018.41 1018.56 1018.76 1019.02 1019.33 1019.68 1020.03 1020.37 1020.67 1020.91 1021.09 1021.23 1021.33 1021.42 1021.52 1021.65 1021.79 1021.96 1022.15 1022.34 1022.53 1022.72 1022.90 1023.06 1023.22 1023.37 1023.50 1023.61 1023.71
1017.33 1017.54 1017.64 1017.66 1017.64 1017.62 1017.62 1017.69 1017.80 1017.96 1018.14 1018.33 1018.50 1018.66 1018.80 1018.94 1019.09 1019.27 1019.49 1019.73 1020.00 1020.26 1020.51 1020.73 1020.92 1021.07 1021.20 1021.32 1021.43 1021.56 1021.69 1021.85 1022.01 1022.19 1022.37 1022.56 1022.74 1022.92 1023.10 1023.27 1023.42 1023.56 1023.68
1017.44 1017.68 1017.80 1017.83 1017.81 1017.78 1017.78 1017.84 1017.97 1018.16 1018.38 1018.62 1018.85 1019.05 1019.20 1019.33 1019.44 1019.54 1019.65 1019.79 1019.94 1020.12 1020.31 1020.49 1020.68 1020.84 1021.00 1021.14 1021.27 1021.41 1021.54 1021.69 1021.84 1021.99 1022.16 1022.34 1022.52 1022.71 1022.90 1023.08 1023.25 1023.41 1023.54
1017.55 1017.81 1017.96 1018.01 1018.00 1017.97 1017.97 1018.03 1018.16 1018.36 1018.62 1018.90 1019.16 1019.39 1019.56 1019.68 1019.74 1019.78 1019.80 1019.83 1019.89 1019.98 1020.10 1020.25 1020.42 1020.59 1020.77 1020.93 1021.09 1021.25 1021.39 1021.53 1021.67 1021.82 1021.97 1022.13 1022.30 1022.48 1022.66 1022.84 1023.02 1023.18 1023.34
1017.65 1017.93 1018.10 1018.17 1018.17 1018.15 1018.15 1018.20 1018.33 1018.54 1018.81 1019.10 1019.39 1019.64 1019.83 1019.94 1019.98 1019.96 1019.92 1019.87 1019.85 1019.86 1019.93 1020.03 1020.18 1020.36 1020.55 1020.75 1020.94 1021.11 1021.28 1021.43 1021.57 1021.71 1021.84 1021.99 1022.14 1022.29 1022.45 1022.61 1022.78 1022.93 1023.08
1017.73 1018.03 1018.22 1018.31 1018.33 1018.31 1018.31 1018.35 1018.47 1018.66 1018.92 1019.22 1019.52 1019.78 1019.98 1020.09 1020.13 1020.09 1020.00 1019.90 1019.82 1019.78 1019.80 1019.87 1020.00 1020.18 1020.38 1020.60 1020.82 1021.03 1021.22 1021.39 1021.55 1021.69 1021.82 1021.94 1022.06 1022.18 1022.31 1022.43 1022.56 1022.69 1022.82
1017.78 1018.08 1018.28 1018.40 1018.44 1018.44 1018.44 1018.47 1018.57 1018.74 1018.98 1019.27 1019.56 1019.82 1020.03 1020.15 1020.19 1020.14 1020.05 1019.93 1019.82 1019.74 1019.72 1019.77 1019.88 1020.05 1020.26 1020.50 1020.74 1020.99 1021.21 1021.41 1021.59 1021.75 1021.88 1021.99 1022.08 1022.17 1022.24 1022.31 1022.39 1022.48 1022.57
1017.77 1018.07 1018.29 1018.43 1018.50 1018.53 1018.54 1018.58 1018.66 1018.81 1019.02 1019.27 1019.54 1019.80 1020.00 1020.13 1020.18 1020.15 1020.06 1019.94 1019.82 1019.73 1019.69 1019.71 1019.80 1019.96 1020.16 1020.41 1020.67 1020.94 1021.20 1021.44 1021.65 1021.83 1021.97 1022.08 1022.15 1022.20 1022.23 1022.25 1022.26 1022.29 1022.33
1017.70 1018.01 1018.25 1018.42 1018.53 1018.59 1018.63 1018.68 1018.75 1018.87 1019.05 1019.27 1019.51 1019.74 1019.93 1020.07 1020.13 1020.12 1020.05 1019.94 1019.82 1019.72 1019.66 1019.66 1019.73 1019.86 1020.05 1020.29 1020.56 1020.85 1021.13 1021.41 1021.66 1021.87 1022.03 1022.15 1022.21 1022.24 1022.22 1022.19 1022.15 1022.11 1022.09
1017.58 1017.89 1018.15 1018.37 1018.53 1018.64 1018.72 1018.78 1018.86 1018.97 1019.11 1019.29 1019.49 1019.69 1019.86 1019.98 1020.05 1020.06 1020.01 1019.92 1019.81 1019.71 1019.63 1019.61 1019.64 1019.74 1019.90 1020.11 1020.38 1020.67 1020.97 1021.28 1021.56 1021.80 1022.00 1022.13 1022.20 1022.22 1022.18 1022.11 1022.02 1021.93 1021.86
1017.43 1017.74 1018.03 1018.28 1018.50 1018.66 1018.79 1018.89 1018.98 1019.08 1019.20 1019.33 1019.48 1019.64 1019.78 1019.89 1019.95 1019.97 1019.93 1019.86 1019.76 1019.66 1019.58 1019.52 1019.52 1019.58 1019.70 1019.88 1020.12 1020.40 1020.71 1021.03 1021.34 1021.61 1021.84 1022.00 1022.09 1022.11 1022.07 1021.98 1021.86 1021.73 1021.62
1017.26 1017.57 1017.88 1018.18 1018.44 1018.67 1018.84 1018.98 1019.09 1019.18 1019.27 1019.37 1019.48 1019.59 1019.69 1019.77 1019.83 1019.84 1019.82 1019.76 1019.68 1019.58 1019.49 1019.41 1019.38 1019.39 1019.47 1019.61 1019.81 1020.07 1020.37 1020.69 1021.01 1021.30 1021.55 1021.74 1021.86 1021.90 1021.88 1021.79 1021.66 1021.52 1021.38
1017.10 1017.41 1017.73 1018.06 1018.36 1018.63 1018.85 1019.02 1019.14 1019.23 1019.31 1019.37 1019.43 1019.50 1019.56 1019.62 1019.66 1019.68 1019.66 1019.62 1019.55 1019.46 1019.37 1019.28 1019.22 1019.20 1019.24 1019.33 1019.49 1019.72 1019.99 1020.29 1020.61 1020.91 1021.17 1021.38 1021.53 1021.60 1021.60 1021.53 1021.43 1021.29 1021.14
1016.96 1017.25 1017.57 1017.91 1018.23 1018.53 1018.78 1018.97 1019.10 1019.19 1019.25 1019.28 1019.31 1019.34 1019.38 1019.42 1019.45 1019.47 1019.47 1019.44 1019.39 1019.32 1019.23 1019.14 1019.07 1019.02 1019.02 1019.08 1019.20 1019.38 1019.62 1019.89 1020.18 1020.47 1020.73 1020.95 1021.11 1021.20 1021.23 1021.21 1021.13 1021.03 1020.91
1016.82 1017.09 1017.39 1017.72 1018.05 1018.35 1018.60 1018.80 1018.94 1019.02 1019.06 1019.08 1019.09 1019.10 1019.13 1019.15 1019.19 1019.22 1019.24 1019.24 1019.21 1019.15 1019.08 1018.99 1018.92 1018.86 1018.84 1018.86 1018.95 1019.08 1019.27 1019.50 1019.75 1020.00 1020.24 1020.44 1020.60 1020.71 1020.77 1020.79 1020.76 1020.71 1020.63
1016.65 1016.88 1017.16 1017.46 1017.77 1018.06 1018.30 1018.49 1018.63 1018.71 1018.75 1018.76 1018.77 1018.78 1018.80 1018.84 1018.89 1018.94 1018.98 1019.00 1018.99 1018.96 1018.90 1018.83 1018.75 1018.69 1018.65 1018.65 1018.70 1018.80 1018.94 1019.11 1019.30 1019.50 1019.69 1019.86 1020.00 1020.10 1020.18 1020.23 1020.26 1020.27 1020.26
1016.39 1016.59 1016.84 1017.11 1017.39 1017.66 1017.88 1018.06 1018.19 1018.27 1018.32 1018.34 1018.36 1018.39 1018.44 1018.50 1018.57 1018.64 1018.70 1018.74 1018.75 1018.73 1018.68 1018.61 1018.53 1018.46 1018.41 1018.39 1018.41 1018.47 1018.56 1018.67 1018.80 1018.93 1019.05 1019.17 1019.27 1019.36 1019.44 1019.52 1019.59 1019.66 1019.73
1016.02 1016.20 1016.42 1016.67 1016.92 1017.16 1017.37 1017.53 1017.66 1017.75 1017.81 1017.86 1017.91 1017.98 1018.06 1018.15 1018.25 1018.34 1018.42 1018.46 1018.47 1018.44 1018.38 1018.30 1018.21 1018.12 1018.06 1018.02 1018.01 1018.03 1018.08 1018.14 1018.20 1018.26 1018.31 1018.36 1018.41 1018.46 1018.53 1018.61 1018.73 1018.86 1019.00
1015.52 1015.70 1015.91 1016.14 1016.37 1016.59 1016.79 1016.96 1017.09 1017.20 1017.29 1017.38 1017.47 1017.58 1017.69 1017.82 1017.94 1018.05 1018.12 1018.15 1018.14 1018.08 1017.98 1017.87 1017.75 1017.64 1017.55 1017.49 1017.46 1017.45 1017.46 1017.48 1017.49 1017.49 1017.47 1017.45 1017.43 1017.44 1017.48 1017.56 1017.69 1017.86 1018.06
1014.93 1015.12 1015.34 1015.57 1015.80 1016.02 1016.22 1016.40 1016.55 1016.68 1016.81 1016.93 1017.07 1017.22 1017.37 1017.52 1017.66 1017.75 1017.81 1017.80 1017.74 1017.63 1017.48 1017.31 1017.14 1016.99 1016.87 1016.79 1016.74 1016.72 1016.72 1016.70 1016.68 1016.63 1016.56 1016.48 1016.41 1016.36 1016.36 1016.42 1016.55 1016.74 1016.97
1014.34 1014.55 1014.79 1015.04 1015.29 1015.53 1015.74 1015.94 1016.11 1016.27 1016.43 1016.59 1016.75 1016.93 1017.10 1017.26 1017.39 1017.46 1017.47 1017.41 1017.28 1017.10 1016.87 1016.64 1016.41 1016.21 1016.06 1015.96 1015.90 1015.88 1015.88 1015.87 1015.84 1015.77 1015.67 1015.56 1015.44 1015.34 1015.29 1015.31 1015.41 1015.59 1015.83
1013.84 1014.09 1014.37 1014.65 1014.93 1015.19 1015.42 1015.64 1015.83 1016.01 1016.18 1016.36 1016.54 1016.72 1016.89 1017.03 1017.13 1017.16 1017.11 1016.98 1016.77 1016.51 1016.20 1015.89 1015.60 1015.36 1015.18 1015.07 1015.02 1015.02 1015.03 1015.05 1015.04 1014.99 1014.89 1014.76 1014.61 1014.48 1014.38 1014.35 1014.40 1014.54 1014.75
1013.55 1013.85 1014.16 1014.48 1014.80 1015.09 1015.34 1015.57 1015.77 1015.95 1016.11 1016.28 1016.43 1016.59 1016.72 1016.82 1016.86 1016.83 1016.71 1016.51 1016.23 1015.89 1015.51 1015.13 1014.79 1014.51 1014.31 1014.20 1014.17 1014.20 1014.26 1014.32 1014.36 1014.35 1014.28 1014.17 1014.02 1013.86 1013.72 1013.63 1013.62 1013.68 1013.83
1013.57 1013.90 1014.26 1014.62 1014.96 1015.27 1015.53 1015.76 1015.94 1016.09 1016.21 1016.32 1016.42 1016.51 1016.58 1016.60 1016.58 1016.47 1016.29 1016.02 1015.67 1015.27 1014.84 1014.42 1014.04 1013.74 1013.53 1013.43 1013.42 1013.49 1013.60 1013.72 1013.82 1013.87 1013.86 1013.78 1013.64 1013.48 1013.31 1013.17 1013.08 1013.06 1013.11
1013.92 1014.29 1014.68 1015.07 1015.42 1015.73 1015.99 1016.18 1016.32 1016.40 1016.45 1016.48 1016.49 1016.48 1016.45 1016.38 1016.27 1016.09 1015.85 1015.52 1015.13 1014.69 1014.23 1013.79 1013.40 1013.08 1012.88 1012.78 1012.79 1012.89 1013.05 1013.22 1013.38 1013.50 1013.55 1013.52 1013.42 1013.26 1013.08 1012.90 1012.74 1012.63 1012.57
Thickness
5737 5736 5734 5733 5734 5732 5731 5729 5730 5729 5728 5728 5728 5727 5727 5726 5725 5724 5719 5714 5712 5710 5708 5708 5707 5707 5706 5706 5706 5705 5705 5705 5704 5704 5704 5704 5703 5703 5703 5702 5702 5701 5701
5734 5733 5732 5731 5731 5731 5730 5729 5729 5728 5728 5728 5727 5726 5725 5724 5722 5720 5720 5714 5711 5709 5708 5707 5706 5706 5705 5705 5704 5704 5704 5703 5703 5703 5702 5702 5702 5702 5701 5701 5700 5700 5700
5732 5731 5731 5730 5730 5729 5727 5727 5727 5728 5728 5728 5726 5725 5724 5722 5721 5719 5718 5716 5713 5709 5708 5707 5706 5705 5705 5704 5704 5703 5702 5702 5702 5701 5701 5701 5701 5700 5700 5700 5699 5699 5698
5730 5729 5730 5730 5728 5729 5729 5728 5728 5729 5728 5728 5726 5725 5724 5721 5720 5718 5718 5715 5714 5713 5709 5706 5705 5705 5704 5703 5703 5702 5702 5701 5701 5701 5701 5700 5700 5699 5699 5698 5698 5697 5697
5729 5728 5729 5728 5727 5728 5729 5729 5728 5728 5727 5726 5726 5724 5724 5723 5720 5719 5717 5716 5714 5712 5711 5707 5705 5704 5704 5703 5702 5702 5701 5701 5700 5700 5700 5699 5699 5698 5698 5697 5697 5696 5696
5728 5728 5727 5726 5728 5728 5727 5726 5724 5724 5725 5725 5728 5725 5724 5723 5722 5720 5719 5717 5715 5713 5712 5710 5708 5705 5704 5703 5702 5701 5701 5700 5700 5699 5699 5698 5698 5697 5697 5696 5696 5695 5695
5727 5727 5729 5726 5727 5728 5726 5726 5726 5724 5725 5725 5724 5722 5722 5723 5721 5719 5719 5717 5716 5714 5712 5710 5710 5708 5706 5703 5702 5701 5701 5700 5700 5699 5698 5698 5697 5696 5696 5695 5695 5694 5694
5726 5727 5727 5727 5727 5725 5724 5725 5723 5726 5726 5725 5724 5721 5717 5716 5717 5721 5719 5717 5716 5715 5713 5712 5710 5707 5707 5706 5703 5702 5701 5700 5699 5699 5698 5697 5696 5696 5695 5694 5694 5694 5693
5727 5727 5726 5728 5726 5727 5726 5724 5724 5723 5724 5724 5726 5724 5719 5716 5716 5718 5717 5717 5715 5715 5714 5712 5710 5708 5707 5706 5704 5701 5700 5699 5699 5698 5697 5697 5696 5695 5694 5694 5693 5693 5692
5726 5725 5725 5725 5726 5728 5725 5725 5726 5725 5723 5724 5723 5723 5724 5724 5718 5715 5716 5717 5715 5714 5714 5714 5712 5709 5708 5707 5703 5701 5700 5699 5698 5697 5697 5696 5695 5694 5693 5693 5692 5692 5692
5725 5725 5725 5725 5724 5726 5725 5724 5723 5724 5725 5725 5725 5724 5721 5720 5720 5718 5714 5714 5716 5716 5715 5713 5712 5711 5708 5707 5704 5702 5699 5697 5696 5696 5695 5694 5693 5693 5692 5692 5692 5691 5691
5725 5725 5725 5724 5724 5725 5723 5723 5723 5723 5724 5723 5724 5725 5723 5721 5720 5719 5715 5713 5714 5716 5714 5713 5712 5711 5709 5707 5705 5701 5698 5696 5695 5694 5693 5692 5692 5691 5691 5691 5690 5690 5690
5727 5725 5726 5723 5724 5723 5723 5723 5722 5723 5722 5720 5720 5722 5724 5724 5723 5721 5718 5716 5714 5716 5713 5713 5713 5710 5709 5706 5703 5699 5697 5695 5694 5692 5691 5690 5690 5689 5689 5688 5688 5688 5689
5730 5727 5725 5723 5723 5722 5722 5721 5723 5722 5720 5719 5720 5719 5720 5722 5722 5721 5718 5716 5712 5713 5713 5713 5713 5710 5708 5705 5702 5698 5697 5694 5692 5691 5690 5689 5688 5688 5687 5687 5686 5686 5687
5729 5726 5725 5723 5722 5721 5721 5720 5722 5720 5719 5718 5719 5717 5717 5720 5719 5719 5718 5716 5711 5708 5709 5711 5710 5710 5706 5704 5700 5698 5697 5694 5692 5690 5689 5688 5687 5686 5686 5685 5685 5685 5685
5727 5726 5724 5723 5721 5720 5719 5718 5719 5718 5716 5716 5715 5715 5713 5717 5716 5715 5714 5713 5712 5708 5707 5712 5709 5710 5704 5704 5699 5697 5696 5693 5691 5690 5688 5687 5686 5685 5685 5684 5684 5684 5683
5725 5724 5723 5722 5721 5719 5718 5716 5717 5716 5714 5714 5713 5712 5710 5711 5712 5712 5711 5710 5708 5707 5702 5706 5708 5706 5699 5697 5697 5696 5695 5693 5694 5691 5688 5687 5685 5685 5684 5683 5683 5682 5682
5725 5723 5722 5721 5720 5719 5717 5715 5714 5714 5712 5711 5710 5709 5708 5707 5705 5705 5705 5705 5704 5702 5699 5697 5700 5700 5696 5694 5693 5691 5693 5694 5693 5691 5688 5686 5684 5684 5683 5682 5682 5681 5680
5724 5723 5721 5719 5718 5718 5716 5714 5713 5712 5710 5709 5708 5706 5704 5703 5700 5701 5698 5699 5699 5698 5695 5693 5694 5695 5694 5693 5690 5689 5690 5688 5690 5690 5687 5685 5683 5682 5681 5681 5680 5679 5678
5723 5721 5720 5718 5717 5716 5714 5712 5711 5709 5707 5705 5704 5702 5701 5699 5696 5695 5693 5692 5691 5691 5689 5687 5688 5689 5688 5688 5685 5684 5686 5687 5687 5688 5687 5685 5682 5681 5680 5679 5678 5677 5676
5722 5719 5718 5716 5715 5713 5712 5710 5708 5706 5703 5701 5699 5697 5696 5694 5692 5689 5689 5688 5685 5683 5683 5682 5681 5682 5682 5680 5679 5680 5680 5682 5683 5683 5683 5683 5682 5681 5681 5678 5676 5675 5674
5720 5718 5715 5714 5711 5711 5708 5703 5701 5701 5698 5696 5693 5692 5690 5687 5684 5680 5678 5676 5675 5674 5674 5674 5675 5674 5672 5672 5671 5671 5672 5671 5672 5679 5675 5676 5677 5677 5677 5677 5677 5674 5671
5716 5713 5711 5710 5707 5704 5700 5696 5693 5692 5692 5690 5687 5685 5684 5685 5679 5677 5673 5668 5666 5663 5661 5662 5665 5665 5665 5664 5661 5662 5660 5661 5662 5666 5664 5665 5669 5669 5671 5673 5671 5668 5666
5712 5709 5707 5705 5702 5699 5693 5689 5686 5684 5685 5683 5680 5678 5676 5674 5671 5668 5666 5665 5663 5661 5656 5653 5654 5655 5655 5654 5652 5651 5651 5652 5653 5656 5655 5654 5660 5662 5665 5665 5664 5663 5661
5706 5703 5701 5698 5695 5691 5685 5681 5677 5678 5677 5675 5673 5670 5667 5664 5659 5656 5654 5654 5653 5653 5650 5647 5645 5644 5641 5640 5639 5639 5641 5642 5645 5649 5651 5648 5650 5653 5656 5658 5658 5656 5654
5698 5695 5692 5690 5687 5682 5676 5673 5669 5671 5669 5667 5664 5660 5655 5653 5648 5645 5643 5643 5641 5642 5640 5640 5636 5634 5633 5632 5629 5628 5630 5631 5634 5638 5642 5638 5639 5640 5642 5648 5649 5648 5646